Location: Unspecified
(0.0000°N, 0.0000°E)
Time: 04:02:15
(UTC+00:00)

Vanguard 2 - Visible Passes

Search period start: 25 February 2018 00:00
Search period end: 07 March 2018 00:00
Orbit: 553 x 2939 km, 32.9° (Epoch: 24 February)

Date Brightness Start Highest point End Pass type
(mag) Time Alt. Az. Time Alt. Az. Time Alt. Az.
02 Mar 10.1 19:56:08 10° N 19:58:37 13° N 19:58:37 13° N visible
03 Mar 10.0 20:12:47 10° NNW 20:16:01 17° N 20:16:01 17° N visible
04 Mar 9.9 20:30:06 10° NNW 20:33:26 21° NNW 20:33:26 21° NNW visible
05 Mar 10.1 18:38:21 10° NNW 18:43:57 16° NNE 18:48:21 10° NE visible
05 Mar 9.9 20:47:48 10° NW 20:50:55 22° NNW 20:50:55 22° NNW visible
06 Mar 9.7 18:55:33 10° NNW 19:02:56 22° NNE 19:06:57 14° ENE visible
06 Mar 10.2 21:05:51 10° NW 21:08:25 21° NW 21:08:25 21° NW visible
